WMT843 LRCL-LGIR

Flight info

Callsign WMT843
Flight time 1h 45m
Altitude 37000
Route ELROM DCT BUKAN DCT NEPOT DCT LOMOS DCT NIKTI DCT KOROS/N0454F380 DCT NEVRA/N0445F370 UT514 GIVIS T514 XAVIS
Aircraft A321/M-SDE1E2E3FGIJ1J4RWXY/LB1

Departure

Time 2026-04-23 17:19
Airport Avram Iancu Cluj International Airport (LRCL)

Arrival

Time 2026-04-23 19:05
Airport Heraklion International Nikos Kazantzakis Airport (LGIR)
Time Latitude Longitude Altitude Speed Heading
2026-04-23 16:45 46.78447 23.69301 1022 ft 0 kts 256°
2026-04-23 17:10 46.78448 23.69309 1022 ft 2 kts 256°
2026-04-23 17:10 46.78452 23.69330 1022 ft 2 kts 257°
2026-04-23 17:10 46.78453 23.69351 1022 ft 2 kts 272°
2026-04-23 17:10 46.78453 23.69370 1022 ft 0 kts 279°
2026-04-23 17:11 46.78451 23.69379 1022 ft 0 kts 282°
2026-04-23 17:14 46.78451 23.69378 1022 ft 0 kts 282°
2026-04-23 17:14 46.78452 23.69375 1022 ft 0 kts 284°
2026-04-23 17:14 46.78464 23.69363 1022 ft 2 kts 352°
2026-04-23 17:14 46.78502 23.69355 1022 ft 8 kts 351°
2026-04-23 17:15 46.78566 23.69333 1022 ft 9 kts 345°
2026-04-23 17:15 46.78633 23.69295 1020 ft 11 kts 341°
2026-04-23 17:15 46.78709 23.69260 1020 ft 11 kts 342°
2026-04-23 17:15 46.78787 23.69224 1019 ft 11 kts 342°
2026-04-23 17:16 46.78864 23.69188 1019 ft 11 kts 349°
2026-04-23 17:16 46.78924 23.69247 1019 ft 11 kts 67°
2026-04-23 17:16 46.78947 23.69354 1019 ft 10 kts 72°
2026-04-23 17:16 46.78972 23.69459 1019 ft 10 kts 71°
2026-04-23 17:17 46.78988 23.69568 1018 ft 11 kts 89°
2026-04-23 17:17 46.79004 23.69620 1017 ft 5 kts 341°
2026-04-23 17:17 46.79001 23.69575 1018 ft 4 kts 242°
2026-04-23 17:17 46.78993 23.69546 1018 ft 0 kts 252°
2026-04-23 17:19 46.78925 23.69234 1019 ft 75 kts 253°
2026-04-23 17:19 46.78684 23.68139 1027 ft 151 kts 254°
2026-04-23 17:19 46.78345 23.66600 1674 ft 164 kts 254°
2026-04-23 17:19 46.77994 23.65056 2494 ft 162 kts 253°
2026-04-23 17:20 46.77641 23.63500 2960 ft 168 kts 254°
2026-04-23 17:20 46.76834 23.59951 3612 ft 201 kts 255°
2026-04-23 17:21 46.75865 23.55681 4276 ft 241 kts 253°
2026-04-23 17:21 46.75227 23.53338 4693 ft 259 kts 248°
2026-04-23 17:21 46.73618 23.48557 6165 ft 266 kts 247°
2026-04-23 17:22 46.72795 23.46152 6923 ft 267 kts 248°
2026-04-23 17:22 46.71134 23.41289 8345 ft 273 kts 248°
2026-04-23 17:23 46.69354 23.36362 9673 ft 283 kts 236°
2026-04-23 17:23 46.67756 23.34592 10176 ft 302 kts 204°
2026-04-23 17:23 46.63327 23.34562 10778 ft 341 kts 172°
2026-04-23 17:24 46.60937 23.35136 11140 ft 353 kts 171°
2026-04-23 17:24 46.58519 23.35683 11695 ft 358 kts 172°
2026-04-23 17:24 46.53542 23.36661 12824 ft 367 kts 173°
2026-04-23 17:25 46.48394 23.37558 13970 ft 375 kts 173°
2026-04-23 17:25 46.45818 23.37989 14517 ft 378 kts 173°
2026-04-23 17:26 46.40564 23.38854 15573 ft 386 kts 172°
2026-04-23 17:26 46.35174 23.39732 16606 ft 394 kts 172°
2026-04-23 17:27 46.29728 23.40622 17588 ft 401 kts 171°
2026-04-23 17:27 46.26946 23.41076 18069 ft 405 kts 171°
2026-04-23 17:27 46.24149 23.41533 18543 ft 408 kts 171°
2026-04-23 17:27 46.21313 23.41998 19030 ft 411 kts 171°
2026-04-23 17:28 46.18492 23.42459 19508 ft 413 kts 171°
2026-04-23 17:28 46.15637 23.42924 19977 ft 416 kts 171°
2026-04-23 17:28 46.12785 23.43388 20433 ft 418 kts 171°
2026-04-23 17:28 46.09889 23.43858 20884 ft 421 kts 171°
2026-04-23 17:29 46.06976 23.44331 21333 ft 423 kts 171°
2026-04-23 17:29 46.04035 23.44807 21784 ft 425 kts 171°
2026-04-23 17:29 45.98152 23.45754 22624 ft 430 kts 171°
2026-04-23 17:30 45.95192 23.46228 23050 ft 431 kts 171°
2026-04-23 17:30 45.89209 23.47195 23834 ft 436 kts 171°
2026-04-23 17:30 45.86182 23.47683 24195 ft 438 kts 171°
2026-04-23 17:31 45.83190 23.48164 24545 ft 440 kts 171°
2026-04-23 17:31 45.80152 23.48652 24891 ft 442 kts 171°
2026-04-23 17:31 45.77060 23.49148 25233 ft 445 kts 171°
2026-04-23 17:31 45.74004 23.49636 25568 ft 446 kts 171°
2026-04-23 17:32 45.70922 23.50129 25897 ft 448 kts 171°
2026-04-23 17:32 45.67810 23.50627 26218 ft 451 kts 171°
2026-04-23 17:32 45.64727 23.51119 26528 ft 453 kts 171°
2026-04-23 17:32 45.61606 23.51616 26842 ft 454 kts 171°
2026-04-23 17:33 45.58465 23.52116 27143 ft 456 kts 171°
2026-04-23 17:33 45.55304 23.52618 27423 ft 459 kts 171°
2026-04-23 17:33 45.52154 23.53119 27712 ft 460 kts 171°
2026-04-23 17:33 45.48956 23.53628 28017 ft 462 kts 171°
2026-04-23 17:34 45.45792 23.54129 28306 ft 463 kts 171°
2026-04-23 17:34 45.42583 23.54637 28583 ft 465 kts 171°
2026-04-23 17:34 45.36154 23.55653 29118 ft 468 kts 171°
2026-04-23 17:35 45.32910 23.56163 29380 ft 470 kts 171°
2026-04-23 17:35 45.26423 23.57182 29885 ft 473 kts 171°
2026-04-23 17:35 45.23181 23.57690 30130 ft 474 kts 171°
2026-04-23 17:36 45.19900 23.58204 30369 ft 476 kts 171°
2026-04-23 17:36 45.16630 23.58716 30602 ft 477 kts 171°
2026-04-23 17:36 45.13315 23.59235 30833 ft 478 kts 170°
2026-04-23 17:36 45.10017 23.59751 31057 ft 480 kts 170°
2026-04-23 17:37 45.06722 23.60266 31278 ft 481 kts 170°
2026-04-23 17:37 45.03406 23.60783 31558 ft 480 kts 170°
2026-04-23 17:37 44.96792 23.61814 32187 ft 478 kts 170°
2026-04-23 17:38 44.93498 23.62326 32472 ft 477 kts 170°
2026-04-23 17:38 44.90225 23.62835 32740 ft 476 kts 170°
2026-04-23 17:38 44.86957 23.63342 32994 ft 476 kts 170°
2026-04-23 17:38 44.83678 23.63851 33256 ft 475 kts 170°
2026-04-23 17:39 44.80402 23.64358 33520 ft 473 kts 170°
2026-04-23 17:39 44.77128 23.64864 33771 ft 473 kts 170°
2026-04-23 17:39 44.73882 23.65366 34006 ft 472 kts 171°
2026-04-23 17:39 44.70589 23.65874 34238 ft 472 kts 171°
2026-04-23 17:40 44.67327 23.66379 34462 ft 471 kts 171°
2026-04-23 17:40 44.64085 23.66878 34683 ft 471 kts 171°
2026-04-23 17:40 44.60854 23.67375 34894 ft 470 kts 171°
2026-04-23 17:40 44.57631 23.67871 35094 ft 470 kts 171°
2026-04-23 17:41 44.54388 23.68370 35285 ft 470 kts 171°
2026-04-23 17:41 44.47898 23.69364 35598 ft 471 kts 171°
2026-04-23 17:41 44.44649 23.69862 35745 ft 472 kts 171°
2026-04-23 17:42 44.38156 23.70854 36053 ft 472 kts 171°
2026-04-23 17:42 44.34885 23.71353 36184 ft 473 kts 171°
2026-04-23 17:42 44.31634 23.71848 36307 ft 474 kts 171°
2026-04-23 17:43 44.28368 23.72344 36430 ft 474 kts 171°
2026-04-23 17:43 44.25082 23.72843 36551 ft 475 kts 171°
2026-04-23 17:43 44.21821 23.73338 36664 ft 476 kts 171°
2026-04-23 17:43 44.18516 23.73840 36789 ft 476 kts 171°
2026-04-23 17:44 44.15256 23.74335 36896 ft 477 kts 171°
2026-04-23 17:44 44.05363 23.75828 36906 ft 478 kts 171°
2026-04-23 17:45 43.95448 23.77323 36905 ft 479 kts 171°
2026-04-23 17:46 43.85556 23.78809 36904 ft 478 kts 171°
2026-04-23 17:46 43.78947 23.79799 36906 ft 478 kts 171°
2026-04-23 17:47 43.72330 23.80787 36907 ft 477 kts 171°
2026-04-23 17:48 43.62475 23.82258 36907 ft 477 kts 171°
2026-04-23 17:48 43.55879 23.83236 36907 ft 476 kts 171°
2026-04-23 17:49 43.49343 23.84206 36907 ft 476 kts 171°
2026-04-23 17:49 43.42803 23.85173 36917 ft 475 kts 171°
2026-04-23 17:50 43.36216 23.86145 36940 ft 475 kts 171°
2026-04-23 17:50 43.26423 23.87587 36974 ft 473 kts 171°
2026-04-23 17:51 43.19928 23.88540 36984 ft 472 kts 171°
2026-04-23 17:52 43.10193 23.89965 36989 ft 471 kts 171°
2026-04-23 17:52 43.00459 23.91385 36990 ft 470 kts 171°
2026-04-23 17:53 42.90749 23.92797 36990 ft 468 kts 171°
2026-04-23 17:54 42.84279 23.93736 36988 ft 467 kts 171°
2026-04-23 17:54 42.74647 23.95131 36991 ft 466 kts 171°
2026-04-23 17:55 42.65007 23.96524 36989 ft 465 kts 171°
2026-04-23 17:56 42.58576 23.97450 36989 ft 464 kts 171°
2026-04-23 17:56 42.48999 23.98827 36976 ft 463 kts 171°
2026-04-23 17:57 42.42619 23.99739 36969 ft 463 kts 171°
2026-04-23 17:58 42.33077 24.01102 36964 ft 462 kts 171°
2026-04-23 17:58 42.26707 24.02011 36964 ft 462 kts 171°
2026-04-23 17:59 42.20349 24.02913 36963 ft 461 kts 171°
2026-04-23 17:59 42.14008 24.03811 36963 ft 461 kts 171°
2026-04-23 18:00 42.07639 24.04713 36963 ft 461 kts 171°
2026-04-23 18:00 42.01271 24.05614 36963 ft 461 kts 171°
2026-04-23 18:01 41.94940 24.06506 36965 ft 461 kts 171°
2026-04-23 18:01 41.88559 24.07405 36964 ft 461 kts 171°
2026-04-23 18:02 41.82220 24.08485 36962 ft 459 kts 165°
2026-04-23 18:02 41.76026 24.10435 36963 ft 458 kts 163°
2026-04-23 18:03 41.69877 24.12448 36963 ft 458 kts 163°
2026-04-23 18:03 41.63673 24.14440 36965 ft 459 kts 164°
2026-04-23 18:04 41.57503 24.16398 36968 ft 458 kts 164°
2026-04-23 18:04 41.51313 24.18352 36972 ft 458 kts 165°
2026-04-23 18:05 41.45129 24.20298 36976 ft 458 kts 165°
2026-04-23 18:05 41.38958 24.22236 36983 ft 458 kts 165°
2026-04-23 18:06 41.32723 24.24190 36986 ft 458 kts 165°
2026-04-23 18:06 41.26547 24.26121 36989 ft 458 kts 166°
2026-04-23 18:07 41.20386 24.28043 36989 ft 457 kts 166°
2026-04-23 18:07 41.14213 24.29966 36989 ft 457 kts 166°
2026-04-23 18:08 41.08026 24.31889 36990 ft 457 kts 166°
2026-04-23 18:08 41.01896 24.33779 36989 ft 457 kts 168°
2026-04-23 18:09 40.95662 24.35371 36990 ft 457 kts 170°
2026-04-23 18:09 40.89410 24.36893 36989 ft 457 kts 170°
2026-04-23 18:10 40.83184 24.38419 36989 ft 457 kts 169°
2026-04-23 18:10 40.76959 24.39963 36989 ft 457 kts 169°
2026-04-23 18:11 40.70695 24.41527 36989 ft 457 kts 169°
2026-04-23 18:11 40.64485 24.43073 36989 ft 456 kts 169°
2026-04-23 18:12 40.58213 24.44630 36991 ft 462 kts 169°
2026-04-23 18:12 40.51893 24.46195 36991 ft 467 kts 169°
2026-04-23 18:13 40.45554 24.47763 36988 ft 465 kts 169°
2026-04-23 18:13 40.39229 24.49323 36989 ft 463 kts 169°
2026-04-23 18:14 40.32905 24.50880 36989 ft 463 kts 170°
2026-04-23 18:14 40.26591 24.52432 36989 ft 463 kts 170°
2026-04-23 18:15 40.20276 24.53981 36989 ft 463 kts 170°
2026-04-23 18:15 40.14005 24.55516 36989 ft 463 kts 170°
2026-04-23 18:16 40.07666 24.57065 36990 ft 463 kts 170°
2026-04-23 18:16 40.01354 24.58605 36990 ft 463 kts 170°
2026-04-23 18:17 39.91926 24.60912 36990 ft 461 kts 171°
2026-04-23 18:17 39.85613 24.62439 36989 ft 461 kts 171°
2026-04-23 18:18 39.79323 24.63960 36989 ft 460 kts 171°
2026-04-23 18:18 39.73054 24.65476 36989 ft 460 kts 172°
2026-04-23 18:19 39.66779 24.66991 36989 ft 460 kts 172°
2026-04-23 18:19 39.60504 24.68503 36989 ft 460 kts 172°
2026-04-23 18:20 39.54255 24.70007 36990 ft 459 kts 173°
2026-04-23 18:20 39.47966 24.71517 36989 ft 459 kts 173°
2026-04-23 18:21 39.41698 24.73021 36990 ft 459 kts 173°
2026-04-23 18:21 39.35454 24.74514 36990 ft 458 kts 173°
2026-04-23 18:22 39.29214 24.76005 36989 ft 458 kts 173°
2026-04-23 18:22 39.22986 24.77490 36989 ft 458 kts 173°
2026-04-23 18:23 39.13604 24.79720 36990 ft 458 kts 174°
2026-04-23 18:24 39.04235 24.81943 36989 ft 457 kts 174°
2026-04-23 18:25 38.94925 24.84146 36989 ft 456 kts 174°
2026-04-23 18:25 38.88699 24.85615 36990 ft 456 kts 174°
2026-04-23 18:26 38.82490 24.87077 36990 ft 456 kts 174°
2026-04-23 18:26 38.76250 24.88545 36992 ft 456 kts 175°
2026-04-23 18:27 38.70027 24.90007 36995 ft 455 kts 175°
2026-04-23 18:27 38.63808 24.91464 36996 ft 455 kts 175°
2026-04-23 18:28 38.57616 24.92913 36996 ft 455 kts 175°
2026-04-23 18:28 38.51413 24.94362 36995 ft 455 kts 175°
2026-04-23 18:29 38.45187 24.95813 36993 ft 454 kts 175°
2026-04-23 18:29 38.39020 24.96948 36991 ft 451 kts 179°
2026-04-23 18:30 38.32772 24.97826 36990 ft 451 kts 180°
2026-04-23 18:30 38.26564 24.98717 36989 ft 451 kts 180°
2026-04-23 18:31 38.20363 24.99625 36988 ft 451 kts 180°
2026-04-23 18:31 38.14185 25.00538 36987 ft 451 kts 180°
2026-04-23 18:32 38.07983 25.01455 36986 ft 451 kts 180°
2026-04-23 18:32 38.01755 25.02377 36985 ft 450 kts 180°
2026-04-23 18:33 37.95592 25.03298 36984 ft 449 kts 181°
2026-04-23 18:33 37.89400 25.04207 36983 ft 448 kts 181°
2026-04-23 18:34 37.83243 25.05108 36982 ft 448 kts 181°
2026-04-23 18:34 37.77065 25.06014 36981 ft 448 kts 181°
2026-04-23 18:35 37.70888 25.06920 36980 ft 448 kts 181°
2026-04-23 18:35 37.64718 25.07824 36978 ft 449 kts 181°
2026-04-23 18:36 37.58555 25.08725 36977 ft 449 kts 181°
2026-04-23 18:36 37.52350 25.09630 36977 ft 449 kts 181°
2026-04-23 18:37 37.46157 25.10533 36975 ft 449 kts 181°
2026-04-23 18:37 37.40008 25.11427 36974 ft 449 kts 181°
2026-04-23 18:38 37.33809 25.12328 36974 ft 449 kts 181°
2026-04-23 18:38 37.27624 25.13225 36972 ft 449 kts 181°
2026-04-23 18:39 37.23489 25.13824 36972 ft 449 kts 181°
2026-04-23 18:40 37.08284 25.16022 36966 ft 449 kts 181°
2026-04-23 18:40 37.02062 25.16917 36963 ft 450 kts 181°
2026-04-23 18:41 36.95902 25.17802 36963 ft 450 kts 181°
2026-04-23 18:41 36.89682 25.18695 36963 ft 450 kts 181°
2026-04-23 18:42 36.83499 25.19582 36963 ft 450 kts 181°
2026-04-23 18:42 36.77297 25.20469 36963 ft 450 kts 181°
2026-04-23 18:43 36.71166 25.21354 36567 ft 440 kts 181°
2026-04-23 18:43 36.68148 25.21784 35688 ft 447 kts 181°
2026-04-23 18:43 36.65037 25.22223 34776 ft 452 kts 182°
2026-04-23 18:43 36.61938 25.22662 33980 ft 454 kts 182°
2026-04-23 18:44 36.58836 25.23104 33238 ft 455 kts 182°
2026-04-23 18:44 36.55672 25.23553 32474 ft 455 kts 182°
2026-04-23 18:44 36.52561 25.23994 31711 ft 456 kts 181°
2026-04-23 18:44 36.49409 25.24441 30906 ft 457 kts 181°
2026-04-23 18:45 36.46277 25.24886 30273 ft 453 kts 181°
2026-04-23 18:45 36.43160 25.25333 29771 ft 447 kts 181°
2026-04-23 18:45 36.40097 25.25771 29236 ft 443 kts 181°
2026-04-23 18:45 36.37082 25.26199 28657 ft 439 kts 181°
2026-04-23 18:46 36.34063 25.26625 28071 ft 436 kts 181°
2026-04-23 18:46 36.31067 25.27049 27493 ft 433 kts 181°
2026-04-23 18:46 36.28122 25.27464 26919 ft 430 kts 181°
2026-04-23 18:46 36.25164 25.27880 26346 ft 426 kts 181°
2026-04-23 18:47 36.22218 25.28296 25764 ft 423 kts 181°
2026-04-23 18:47 36.19333 25.28702 25200 ft 420 kts 181°
2026-04-23 18:47 36.16440 25.29108 24624 ft 417 kts 181°
2026-04-23 18:47 36.13585 25.29510 24058 ft 414 kts 181°
2026-04-23 18:48 36.10733 25.29911 23499 ft 411 kts 180°
2026-04-23 18:48 36.07916 25.30307 22961 ft 408 kts 181°
2026-04-23 18:48 36.05149 25.30696 22448 ft 404 kts 180°
2026-04-23 18:48 36.02368 25.31086 21896 ft 402 kts 180°
2026-04-23 18:49 35.99583 25.31476 21341 ft 400 kts 180°
2026-04-23 18:49 35.96824 25.31863 20787 ft 398 kts 180°
2026-04-23 18:49 35.94091 25.32245 20236 ft 396 kts 180°
2026-04-23 18:49 35.91366 25.32626 19684 ft 394 kts 180°
2026-04-23 18:50 35.90490 25.32748 19506 ft 393 kts 180°
2026-04-23 18:50 35.85981 25.33378 18587 ft 391 kts 180°
2026-04-23 18:50 35.83304 25.33751 18007 ft 390 kts 180°
2026-04-23 18:50 35.80616 25.34125 17429 ft 389 kts 180°
2026-04-23 18:51 35.77958 25.34494 16856 ft 387 kts 180°
2026-04-23 18:51 35.75314 25.34861 16284 ft 386 kts 179°
2026-04-23 18:51 35.72639 25.35232 15705 ft 385 kts 179°
2026-04-23 18:51 35.70011 25.35598 15133 ft 384 kts 179°
2026-04-23 18:52 35.67382 25.35965 14563 ft 376 kts 179°
2026-04-23 18:52 35.64846 25.36322 13994 ft 365 kts 179°
2026-04-23 18:52 35.62359 25.36671 13416 ft 354 kts 179°
2026-04-23 18:52 35.59967 25.37005 12843 ft 344 kts 179°
2026-04-23 18:53 35.57650 25.37326 12275 ft 333 kts 179°
2026-04-23 18:53 35.55393 25.37640 11700 ft 322 kts 179°
2026-04-23 18:53 35.53202 25.37941 11122 ft 312 kts 178°
2026-04-23 18:53 35.51094 25.38289 10547 ft 307 kts 170°
2026-04-23 18:54 35.49168 25.39403 9979 ft 308 kts 144°
2026-04-23 18:54 35.47820 25.41352 9435 ft 306 kts 118°
2026-04-23 18:54 35.47210 25.43741 8911 ft 301 kts 99°
2026-04-23 18:54 35.46957 25.46232 8386 ft 295 kts 95°
2026-04-23 18:55 35.46899 25.48681 7855 ft 288 kts 79°
2026-04-23 18:55 35.47595 25.50924 7322 ft 278 kts 51°
2026-04-23 18:55 35.48987 25.52475 6791 ft 267 kts 23°
2026-04-23 18:55 35.50692 25.53108 6333 ft 255 kts
2026-04-23 18:56 35.51859 25.52986 6078 ft 249 kts 340°
2026-04-23 18:56 35.53661 25.51410 5612 ft 242 kts 301°
2026-04-23 18:56 35.54183 25.49467 5250 ft 243 kts 271°
2026-04-23 18:56 35.53817 25.47465 4862 ft 248 kts 242°
2026-04-23 18:57 35.52736 25.45777 4444 ft 255 kts 227°
2026-04-23 18:57 35.51472 25.44268 4025 ft 259 kts 225°
2026-04-23 18:57 35.50134 25.42741 3596 ft 264 kts 224°
2026-04-23 18:57 35.48670 25.41401 3171 ft 270 kts 206°
2026-04-23 18:58 35.46916 25.40683 2995 ft 260 kts 194°
2026-04-23 18:58 35.45202 25.40186 2985 ft 246 kts 194°
2026-04-23 18:58 35.43601 25.39708 2982 ft 233 kts 195°
2026-04-23 18:58 35.42059 25.39206 2977 ft 220 kts 194°
2026-04-23 18:59 35.40606 25.39194 2941 ft 207 kts 156°
2026-04-23 18:59 35.39526 25.40243 2975 ft 195 kts 126°
2026-04-23 18:59 35.38692 25.41528 2985 ft 196 kts 136°
2026-04-23 18:59 35.37466 25.42209 2978 ft 197 kts 176°
2026-04-23 19:00 35.36124 25.42017 2994 ft 196 kts 202°
2026-04-23 19:00 35.34958 25.41174 3010 ft 192 kts 226°
2026-04-23 19:00 35.34191 25.39949 3041 ft 171 kts 245°
2026-04-23 19:00 35.33716 25.38702 2989 ft 159 kts 250°
2026-04-23 19:01 35.33287 25.37448 2990 ft 158 kts 250°
2026-04-23 19:01 35.32910 25.36207 3021 ft 155 kts 259°
2026-04-23 19:01 35.32770 25.34913 3053 ft 152 kts 274°
2026-04-23 19:01 35.32825 25.33625 2889 ft 153 kts 278°
2026-04-23 19:02 35.32891 25.32767 2703 ft 152 kts 279°
2026-04-23 19:02 35.33087 25.31058 2284 ft 151 kts 282°
2026-04-23 19:02 35.33240 25.29795 1984 ft 150 kts 279°
2026-04-23 19:02 35.33321 25.28522 1719 ft 149 kts 275°
2026-04-23 19:03 35.33352 25.27260 1543 ft 149 kts 274°
2026-04-23 19:03 35.33420 25.25989 1318 ft 149 kts 277°
2026-04-23 19:03 35.33514 25.24728 1100 ft 150 kts 276°
2026-04-23 19:03 35.33596 25.23460 888 ft 150 kts 277°
2026-04-23 19:04 35.33706 25.22192 687 ft 149 kts 277°
2026-04-23 19:04 35.33788 25.20922 542 ft 149 kts 275°
2026-04-23 19:04 35.33863 25.19659 340 ft 149 kts 276°
2026-04-23 19:04 35.33946 25.18393 121 ft 147 kts 276°
2026-04-23 19:05 35.34031 25.17247 91 ft 117 kts 275°
2026-04-23 19:05 35.34066 25.16675 91 ft 26 kts 274°
2026-04-23 19:05 35.34091 25.16509 91 ft 13 kts 285°
2026-04-23 19:05 35.34075 25.16459 91 ft 7 kts 152°
2026-04-23 19:06 35.34063 25.16526 91 ft 13 kts 89°
2026-04-23 19:06 35.34040 25.16635 91 ft 14 kts 124°
2026-04-23 19:06 35.33993 25.16719 91 ft 15 kts 125°
2026-04-23 19:06 35.33957 25.16824 91 ft 15 kts 96°
2026-04-23 19:07 35.33949 25.16951 91 ft 15 kts 94°
2026-04-23 19:07 35.33941 25.17072 91 ft 15 kts 94°
2026-04-23 19:07 35.33932 25.17209 91 ft 15 kts 95°
2026-04-23 19:07 35.33921 25.17349 91 ft 15 kts 95°
2026-04-23 19:08 35.33911 25.17482 91 ft 8 kts 99°
2026-04-23 19:08 35.33878 25.17505 91 ft 5 kts 189°
2026-04-23 19:08 35.33856 25.17471 91 ft 4 kts 276°
2026-04-23 19:08 35.33868 25.17437 91 ft 2 kts 317°
2026-04-23 19:09 35.33871 25.17434 91 ft 0 kts 317°